Terminal Aerodrome Forecast
Issued by NWS Sioux Falls, SD

Home | Current Version | Previous Version | Graphics & Text | Print | Product List | Glossary Off
Versions: 1 2 3 4 5 6 7 8 9 10 11 12 13

000
FTUS43 KFSD 310530
TAFFSD
TAF
KFSD 310530Z 3106/0106 VRB03KT P6SM SKC
     FM311700 24007KT P6SM SCT100
     FM010000 15009KT P6SM SKC=

USA.gov is the U.S. government's official web portal to all federal, state and local government web resources and services.